GW5132 Weather Reports


Display with metric or nautical units.
time (UTC)temp
F
wind
direction
speed
MPH
gust
MPH
rain 1hr
in
rain 24hr
in
rain mn
in
humidity
%
barometer
mb
20260510060643 51 127 0.0 0.0 0.00 0.00 0.00 96 975.7
20260510060139 51 131 0.0 0.0 0.00 0.00 0.00 96 975.7
20260510055636 51 134 0.0 0.0 0.00 0.00 0.00 96 975.7
20260510055134 51 113 0.0 0.0 0.00 0.00 0.00 96 975.8
20260510054629 51 153 0.0 0.0 0.00 0.00 0.00 96 975.7
20260510054126 50 152 0.0 0.0 0.00 0.00 0.00 96 975.8
20260510053624 51 173 0.0 0.0 0.00 0.00 0.00 96 976.0
20260510053121 51 145 0.0 0.0 0.00 0.00 0.00 96 975.9
20260510052617 51 145 0.0 0.0 0.00 0.00 0.00 95 975.8
20260510052114 51 143 0.0 0.0 0.00 0.00 0.00 95 975.9
20260510051609 51 169 1.0 1.0 0.00 0.00 0.00 95 975.8
20260510051106 51 154 0.0 0.0 0.00 0.00 0.00 96 976.0
20260510050603 51 136 0.0 0.0 0.00 0.00 0.00 96 975.8
20260510050100 51 143 0.0 0.0 0.00 0.00 0.00 96 975.9
20260510045557 51 135 0.0 0.0 0.00 0.00 0.00 96 975.9
20260510045053 51 136 0.0 0.0 0.00 0.00 0.00 96 975.9
20260510044550 51 122 0.0 0.0 0.00 0.00 0.00 96 976.0
20260510044048 51 146 0.0 0.0 0.00 0.00 0.00 95 976.0
20260510043543 51 148 0.0 0.0 0.00 0.00 0.00 95 975.9
20260510043039 51 151 0.0 0.0 0.00 0.00 0.00 95 975.6
20260510042533 51 126 0.0 0.0 0.00 0.00 0.00 95 975.8
20260510042028 51 176 0.0 0.0 0.00 0.00 0.00 95 975.7
20260510041525 51 181 0.0 0.0 0.00 0.00 0.00 95 975.5
20260510041022 51 101 0.0 0.0 0.00 0.00 0.00 95 975.6
20260510040519 51 155 0.0 0.0 0.00 0.00 0.00 95 975.6
20260510040015 51 155 0.0 0.0 0.00 0.00 0.00 94 975.6
20260510035512 51 145 0.0 0.0 0.00 0.00 0.00 94 975.8
20260510035010 51 141 0.0 0.0 0.00 0.00 0.00 94 975.4
20260510034510 51 136 0.0 0.0 0.00 0.00 0.00 94 975.4
20260510034006 52 212 0.0 0.0 0.00 0.00 0.00 94 975.6
20260510033502 51 128 0.0 0.0 0.00 0.00 0.00 94 975.3
20260510032959 52 133 0.0 0.0 0.00 0.00 0.00 94 975.3
20260510032451 52 132 0.0 0.0 0.00 0.00 0.00 94 975.2
20260510031950 51 132 0.0 0.0 0.00 0.00 0.00 94 974.9
20260510031446 52 125 0.0 0.0 0.00 0.00 0.00 94 975.0
20260510030942 52 147 0.0 0.0 0.00 0.00 0.00 93 975.3
20260510030437 52 147 0.0 0.0 0.00 0.00 0.00 93 975.2
20260510025935 52 147 0.0 0.0 0.00 0.00 0.00 93 975.0
20260510025432 52 147 0.0 0.0 0.00 0.00 0.00 92 975.0
20260510024930 53 147 0.0 0.0 0.00 0.00 0.00 92 975.0
20260510024426 53 147 0.0 0.0 0.00 0.00 0.00 92 975.0
20260510023922 53 147 0.0 0.0 0.00 0.00 0.00 92 974.9
20260510023419 53 147 0.0 0.0 0.00 0.00 0.00 91 974.8
20260510022916 53 147 0.0 0.0 0.00 0.00 0.00 91 974.9
20260510022415 53 147 0.0 0.0 0.00 0.00 0.00 90 974.8
20260510021914 54 119 0.0 0.0 0.00 0.00 0.00 89 974.8
20260510021412 54 127 0.0 0.0 0.00 0.00 0.00 89 974.6
20260510020909 54 129 0.0 0.0 0.00 0.00 0.00 90 974.7
20260510020403 53 102 0.0 0.0 0.00 0.00 0.00 90 974.6
20260510015859 54 149 0.0 0.0 0.00 0.00 0.00 90 974.6
20260510015355 54 149 0.0 0.0 0.00 0.00 0.00 90 974.3
20260510014851 54 166 0.0 0.0 0.00 0.00 0.00 90 974.4
20260510014349 54 166 0.0 0.0 0.00 0.00 0.00 89 974.5
20260510013844 54 193 0.0 0.0 0.00 0.00 0.00 89 974.2
20260510013340 55 173 0.0 0.0 0.00 0.00 0.00 88 974.1
20260510012835 55 172 0.0 0.0 0.00 0.00 0.00 87 974.0
20260510012335 55 172 0.0 0.0 0.00 0.00 0.00 87 974.0
20260510011830 55 190 0.0 0.0 0.00 0.00 0.00 86 974.0
20260510011326 56 190 0.0 0.0 0.00 0.00 0.00 86 974.1
20260510010822 56 168 0.0 0.0 0.00 0.00 0.00 86 973.9
20260510010320 56 168 0.0 0.0 0.00 0.00 0.00 85 973.7
20260510005816 57 169 0.0 0.0 0.00 0.00 0.00 84 973.6
20260510005312 57 135 0.0 0.0 0.00 0.00 0.00 83 973.7
20260510004810 58 135 0.0 0.0 0.00 0.00 0.00 81 973.6
20260510004308 58 135 0.0 0.0 0.00 0.00 0.00 80 973.5
20260510003805 59 134 0.0 0.0 0.00 0.00 0.00 80 973.6
20260510003302 59 169 0.0 0.0 0.00 0.00 0.00 79 973.3
20260510002801 59 158 0.0 0.0 0.00 0.00 0.00 77 973.2
20260510002258 60 105 0.0 0.0 0.00 0.00 0.00 77 973.2
20260510001755 60 148 0.0 0.0 0.00 0.00 0.00 77 973.2
20260510001253 60 148 0.0 0.0 0.00 0.00 0.00 75 973.0
20260510000748 60 148 0.0 0.0 0.00 0.00 0.00 75 973.0
20260510000248 61 161 0.0 0.0 0.00 0.00 0.00 74 972.9
20260509235743 62 158 0.0 0.0 0.00 0.00 0.00 72 973.1
20260509235239 64 169 0.0 0.0 0.00 0.00 0.00 68 973.0
20260509234735 64 130 0.0 0.0 0.00 0.00 0.00 67 973.0
20260509234232 64 92 0.0 3.0 0.00 0.00 0.00 65 973.0
20260509233731 65 220 1.0 7.0 0.00 0.00 0.00 66 972.8
20260509233228 67 193 0.0 1.0 0.00 0.00 0.00 63 972.7
20260509232724 67 130 0.0 0.0 0.00 0.00 0.00 59 972.9
20260509232221 67 343 0.0 2.0 0.00 0.00 0.00 57 972.7
20260509231717 67 178 2.0 3.0 0.00 0.00 0.00 57 972.7
20260509231215 67 218 0.0 3.0 0.00 0.00 0.00 57 972.8
20260509230712 67 284 0.0 2.0 0.00 0.00 0.00 56 972.8
20260509230208 68 318 2.0 3.0 0.00 0.00 0.00 56 972.9
20260509225704 68 192 0.0 0.0 0.00 0.00 0.00 55 972.9
20260509225200 69 157 2.0 3.0 0.00 0.00 0.00 54 973.0
20260509224656 70 150 0.0 2.0 0.00 0.00 0.00 56 973.1
20260509224153 70 260 0.0 6.0 0.00 0.00 0.00 52 973.1
20260509223650 71 244 2.0 2.0 0.00 0.00 0.00 51 973.3
20260509223147 70 161 2.0 3.0 0.00 0.00 0.00 54 973.2
20260509222644 69 226 2.0 7.0 0.00 0.00 0.00 54 973.3
20260509222139 70 233 1.0 6.0 0.00 0.00 0.00 52 973.2
20260509221636 69 234 3.0 4.0 0.00 0.00 0.00 53 973.2
20260509221131 69 264 1.0 2.0 0.00 0.00 0.00 53 973.2
20260509220627 69 266 1.0 4.0 0.00 0.00 0.00 53 973.1
20260509220124 69 224 1.0 6.0 0.00 0.00 0.00 54 973.3
20260509215620 68 310 2.0 6.0 0.00 0.00 0.00 55 973.3
20260509215117 69 286 6.0 8.0 0.00 0.00 0.00 54 973.4
20260509214614 69 281 1.0 3.0 0.00 0.00 0.00 52 973.4
20260509214111 68 196 0.0 9.0 0.00 0.00 0.00 53 973.3
20260509213607 69 308 3.0 6.0 0.00 0.00 0.00 52 973.3
20260509213103 67 248 4.0 4.0 0.00 0.00 0.00 55 973.4
20260509212601 67 162 5.0 7.0 0.00 0.00 0.00 55 973.3
20260509212058 68 288 5.0 8.0 0.00 0.00 0.00 55 973.1
20260509211553 68 164 2.0 3.0 0.00 0.00 0.00 55 973.1
20260509211050 68 82 0.0 2.0 0.00 0.00 0.00 54 973.4
20260509210547 69 316 1.0 3.0 0.00 0.00 0.00 54 973.2
20260509210043 68 312 0.0 0.0 0.00 0.00 0.00 56 973.1
20260509205537 69 306 4.0 6.0 0.00 0.00 0.00 56 973.2
20260509205033 69 219 3.0 6.0 0.00 0.00 0.00 55 972.9
20260509204530 68 290 5.0 6.0 0.00 0.00 0.00 55 972.9
20260509204026 69 5 1.0 4.0 0.00 0.00 0.00 56 973.1
20260509203522 68 202 2.0 4.0 0.00 0.00 0.00 58 973.0
20260509203021 67 189 3.0 3.0 0.00 0.00 0.00 58 972.9
20260509202514 68 139 1.0 4.0 0.00 0.00 0.00 57 973.0
20260509202010 69 162 2.0 3.0 0.00 0.00 0.00 55 973.1
20260509201505 69 68 0.0 2.0 0.00 0.00 0.00 56 973.1
20260509201003 68 240 0.0 7.0 0.00 0.00 0.00 55 973.1
20260509200458 67 271 10.0 16.0 0.00 0.00 0.00 56 973.4
20260509195954 69 108 3.0 4.0 0.00 0.00 0.00 57 973.4
20260509195450 67 59 0.0 4.0 0.00 0.00 0.00 56 973.3
20260509194949 67 129 0.0 10.0 0.00 0.00 0.00 58 973.3
20260509194445 67 170 3.0 7.0 0.00 0.00 0.00 57 973.3
20260509193943 67 243 0.0 1.0 0.00 0.00 0.00 61 973.3
20260509193442 67 152 3.0 6.0 0.00 0.00 0.00 56 973.6
20260509192938 67 195 2.0 4.0 0.00 0.00 0.00 55 973.6
20260509192435 67 133 2.0 6.0 0.00 0.00 0.00 56 973.4
20260509191930 68 3 0.0 4.0 0.00 0.00 0.00 56 973.4
20260509191426 67 334 0.0 6.0 0.00 0.00 0.00 57 973.5
20260509190922 67 215 4.0 6.0 0.00 0.00 0.00 57 973.3
20260509190419 67 223 4.0 4.0 0.00 0.00 0.00 58 973.3
20260509185917 67 229 2.0 8.0 0.00 0.00 0.00 58 973.4
20260509185414 67 297 0.0 3.0 0.00 0.00 0.00 56 973.5
20260509184911 67 322 2.0 3.0 0.00 0.00 0.00 56 973.5
20260509184408 67 313 1.0 6.0 0.00 0.00 0.00 56 973.4
20260509183905 67 155 2.0 6.0 0.00 0.00 0.00 56 973.3
20260509183359 66 185 2.0 6.0 0.00 0.00 0.00 58 973.4
20260509182855 67 107 5.0 7.0 0.00 0.00 0.00 57 973.5
20260509182352 65 352 0.0 1.0 0.00 0.00 0.00 57 973.6
20260509181850 65 172 3.0 6.0 0.00 0.00 0.00 56 973.4
20260509181347 65 214 2.0 3.0 0.00 0.00 0.00 56 973.3
20260509180845 65 284 4.0 13.0 0.00 0.00 0.00 57 973.4
20260509180340 66 320 3.0 10.0 0.00 0.00 0.00 55 973.5
20260509175837 65 17 0.0 4.0 0.00 0.00 0.00 56 973.5
20260509175333 66 177 4.0 7.0 0.00 0.00 0.00 56 973.4
20260509174829 65 89 2.0 3.0 0.00 0.00 0.00 56 973.5
20260509174325 65 182 3.0 8.0 0.00 0.00 0.00 54 973.4
20260509173821 67 18 2.0 6.0 0.00 0.00 0.00 53 973.5
20260509173317 66 174 4.0 4.0 0.00 0.00 0.00 53 973.6
20260509172813 66 159 2.0 8.0 0.00 0.00 0.00 52 973.4
20260509172310 66 205 3.0 8.0 0.00 0.00 0.00 50 973.8
20260509171806 65 178 4.0 6.0 0.00 0.00 0.00 52 973.8
20260509171302 65 63 0.0 9.0 0.00 0.00 0.00 52 973.6
20260509170759 65 96 0.0 4.0 0.00 0.00 0.00 52 973.6
20260509170254 65 144 4.0 7.0 0.00 0.00 0.00 51 973.7
20260509165753 65 167 2.0 7.0 0.00 0.00 0.00 54 973.5
20260509165244 65 209 0.0 4.0 0.00 0.00 0.00 53 973.6
20260509164740 64 246 5.0 7.0 0.00 0.00 0.00 52 973.6
20260509164236 64 158 4.0 7.0 0.00 0.00 0.00 52 973.6
20260509163733 65 199 1.0 10.0 0.00 0.00 0.00 53 973.8
20260509163229 64 135 3.0 6.0 0.00 0.00 0.00 55 973.8
20260509162727 64 45 2.0 4.0 0.00 0.00 0.00 54 973.8
20260509162221 64 186 4.0 6.0 0.00 0.00 0.00 54 973.8
20260509161717 64 143 1.0 6.0 0.00 0.00 0.00 57 973.8
20260509161214 63 128 4.0 7.0 0.00 0.00 0.00 56 973.7
20260509160709 62 223 2.0 3.0 0.00 0.00 0.00 57 974.0
20260509160205 62 96 2.0 2.0 0.00 0.00 0.00 60 973.9
20260509155701 62 88 1.0 4.0 0.00 0.00 0.00 60 973.7
20260509155157 62 137 0.0 2.0 0.00 0.00 0.00 58 973.8
20260509154653 61 262 0.0 2.0 0.00 0.00 0.00 60 973.8
20260509154151 61 137 4.0 4.0 0.00 0.00 0.00 59 973.9
20260509153647 62 143 4.0 4.0 0.00 0.00 0.00 60 974.0
20260509153144 61 223 0.0 4.0 0.00 0.00 0.00 62 973.8
20260509152639 62 203 1.0 3.0 0.00 0.00 0.00 61 973.9
20260509152137 62 209 0.0 2.0 0.00 0.00 0.00 66 974.0
20260509151633 61 206 0.0 2.0 0.00 0.00 0.00 65 974.1
20260509151131 61 98 1.0 2.0 0.00 0.00 0.00 66 974.1
20260509150629 61 249 0.0 0.0 0.00 0.00 0.00 68 974.1
20260509150127 60 135 0.0 4.0 0.00 0.00 0.00 64 974.3
20260509145623 61 202 2.0 2.0 0.00 0.00 0.00 67 974.2
20260509145118 60 209 1.0 2.0 0.00 0.00 0.00 66 974.3
20260509144615 60 83 1.0 2.0 0.00 0.00 0.00 65 974.2
20260509144112 60 84 0.0 0.0 0.00 0.00 0.00 67 974.5
20260509143609 60 23 0.0 0.0 0.00 0.00 0.00 67 974.2
20260509143107 60 269 0.0 0.0 0.00 0.00 0.00 67 974.2
20260509142602 60 202 0.0 0.0 0.00 0.00 0.00 66 974.1
20260509142058 60 78 0.0 0.0 0.00 0.00 0.00 64 974.0
20260509141554 60 144 0.0 2.0 0.00 0.00 0.00 64 974.0
20260509141051 60 75 2.0 2.0 0.00 0.00 0.00 66 974.1
20260509140548 59 273 0.0 3.0 0.00 0.00 0.00 69 974.2
20260509140046 59 282 1.0 3.0 0.00 0.00 0.00 68 973.9
20260509135543 59 307 1.0 3.0 0.00 0.00 0.00 68 974.1
20260509135041 60 251 0.0 0.0 0.00 0.00 0.00 67 974.0
20260509134537 59 283 1.0 3.0 0.00 0.00 0.00 69 974.0
20260509134035 58 266 0.0 0.0 0.00 0.00 0.00 71 974.2
20260509133531 58 226 0.0 1.0 0.00 0.00 0.00 72 974.2
20260509133029 58 287 2.0 3.0 0.00 0.00 0.00 72 974.4
20260509132527 57 73 1.0 2.0 0.00 0.00 0.00 73 974.6
20260509132026 57 307 2.0 3.0 0.00 0.00 0.00 72 974.5
20260509131521 57 222 0.0 0.0 0.00 0.00 0.00 72 974.6
20260509131018 58 194 0.0 0.0 0.00 0.00 0.00 73 974.8
20260509130514 58 143 0.0 0.0 0.00 0.00 0.00 72 974.5
20260509130011 57 141 0.0 0.0 0.00 0.00 0.00 78 974.8
20260509125507 56 141 0.0 0.0 0.00 0.00 0.00 80 974.6
20260509125003 55 141 0.0 0.0 0.00 0.00 0.00 81 974.7
20260509124501 55 142 0.0 0.0 0.00 0.00 0.00 82 974.5
20260509123958 55 142 0.0 0.0 0.00 0.00 0.00 83 974.5
20260509123455 54 146 0.0 0.0 0.00 0.00 0.00 83 974.7
20260509122951 54 168 0.0 0.0 0.00 0.00 0.00 84 974.8
20260509122448 53 174 0.0 0.0 0.00 0.00 0.00 83 974.7
20260509121945 53 174 0.0 0.0 0.00 0.00 0.00 84 974.4
20260509121442 53 173 0.0 0.0 0.00 0.00 0.00 86 974.5
20260509120940 52 116 0.0 0.0 0.00 0.00 0.00 87 974.6
20260509120438 52 116 0.0 0.0 0.00 0.00 0.00 87 974.7
20260509115935 52 190 0.0 0.0 0.00 0.00 0.00 88 974.7
20260509115432 52 189 0.0 0.0 0.00 0.00 0.00 88 974.7
20260509114929 52 193 0.0 0.0 0.00 0.00 0.00 88 974.5
20260509114428 51 194 0.0 0.0 0.00 0.00 0.00 87 974.4
20260509113927 51 194 0.0 0.0 0.00 0.00 0.00 86 974.3
20260509113424 51 194 0.0 0.0 0.00 0.00 0.00 87 974.5
20260509112921 51 143 0.0 0.0 0.00 0.00 0.00 88 974.4
20260509112418 51 138 0.0 0.0 0.00 0.00 0.00 87 974.4
20260509111915 51 138 0.0 0.0 0.00 0.00 0.00 87 974.4
20260509111412 51 139 0.0 0.0 0.00 0.00 0.00 89 974.6
20260509110910 51 139 0.0 0.0 0.00 0.00 0.00 89 974.5
20260509110405 51 139 0.0 0.0 0.00 0.00 0.00 88 974.3
20260509105904 51 139 0.0 0.0 0.00 0.00 0.00 88 974.4
20260509105402 50 139 0.0 0.0 0.00 0.00 0.00 88 974.4
20260509104858 50 138 0.0 0.0 0.00 0.00 0.00 89 974.3
20260509104355 50 143 0.0 0.0 0.00 0.00 0.00 89 974.2
20260509103853 50 143 0.0 0.0 0.00 0.00 0.00 89 974.3
20260509103350 50 143 0.0 0.0 0.00 0.00 0.00 89 974.4
20260509102848 50 143 0.0 0.0 0.00 0.00 0.00 89 974.3
20260509102345 50 143 0.0 0.0 0.00 0.00 0.00 90 974.3
20260509101841 50 143 0.0 0.0 0.00 0.00 0.00 90 974.3
20260509101337 50 143 0.0 0.0 0.00 0.00 0.00 90 974.1
20260509100835 50 143 0.0 0.0 0.00 0.00 0.00 89 974.2
20260509100332 50 143 0.0 0.0 0.00 0.00 0.00 89 974.2
20260509095829 50 143 0.0 0.0 0.00 0.00 0.00 89 974.3
20260509095326 51 143 0.0 0.0 0.00 0.00 0.00 89 974.3
20260509094823 51 143 0.0 0.0 0.00 0.00 0.00 88 974.2
20260509094320 51 143 0.0 0.0 0.00 0.00 0.00 88 974.6
20260509093818 51 143 0.0 0.0 0.00 0.00 0.00 88 974.1
20260509093315 51 143 0.0 0.0 0.00 0.00 0.00 87 974.3
20260509092813 51 143 0.0 0.0 0.00 0.00 0.00 87 974.2
20260509092311 52 143 0.0 0.0 0.00 0.00 0.00 87 974.4
20260509091809 52 143 0.0 0.0 0.00 0.00 0.00 86 974.5
20260509091305 52 143 0.0 0.0 0.00 0.00 0.00 86 974.6
20260509090802 52 143 0.0 0.0 0.00 0.00 0.00 85 974.5
20260509090259 52 143 0.0 0.0 0.00 0.00 0.00 85 974.7
20260509085757 52 143 0.0 0.0 0.00 0.00 0.00 84 974.6
20260509085254 53 143 0.0 0.0 0.00 0.00 0.00 84 974.8
20260509084750 52 82 0.0 0.0 0.00 0.00 0.00 81 974.6
20260509084247 52 74 0.0 0.0 0.00 0.00 0.00 84 974.7
20260509083745 52 74 0.0 0.0 0.00 0.00 0.00 84 974.5
20260509083242 52 313 0.0 0.0 0.00 0.00 0.00 86 974.6
20260509082738 52 313 0.0 1.0 0.00 0.00 0.00 86 974.7
20260509082235 52 146 0.0 0.0 0.00 0.00 0.00 86 974.6
20260509081732 52 152 0.0 0.0 0.00 0.00 0.00 86 974.5
20260509081229 52 147 0.0 0.0 0.00 0.00 0.00 85 974.4
20260509080727 52 155 0.0 0.0 0.00 0.00 0.00 84 974.5
20260509080225 52 155 0.0 0.0 0.00 0.00 0.00 83 974.4
20260509075723 53 155 0.0 0.0 0.00 0.00 0.00 84 974.4
20260509075220 53 155 0.0 0.0 0.00 0.00 0.00 82 974.3
20260509074717 53 155 0.0 0.0 0.00 0.00 0.00 82 974.4
20260509074215 53 155 0.0 0.0 0.00 0.00 0.00 82 974.4
20260509073710 53 155 0.0 0.0 0.00 0.00 0.00 81 974.3
20260509073207 53 155 0.0 0.0 0.00 0.00 0.00 83 974.3
20260509072704 52 190 0.0 0.0 0.00 0.00 0.00 82 974.1
20260509072200 53 171 0.0 0.0 0.00 0.00 0.00 85 974.2
20260509071657 53 175 0.0 0.0 0.00 0.00 0.00 84 974.1
20260509071155 53 175 0.0 0.0 0.00 0.00 0.00 83 973.9
20260509070651 53 175 0.0 0.0 0.00 0.00 0.00 84 974.1
20260509070147 53 175 0.0 0.0 0.00 0.00 0.00 83 974.0
20260509065644 53 175 0.0 0.0 0.00 0.00 0.00 81 973.9
20260509065140 53 174 0.0 0.0 0.00 0.00 0.00 81 974.0
20260509064637 53 184 0.0 0.0 0.00 0.00 0.00 82 974.2
20260509064135 53 184 0.0 0.0 0.00 0.00 0.00 84 973.9
20260509063631 53 184 0.0 0.0 0.00 0.00 0.00 84 974.1
20260509063128 53 184 0.0 0.0 0.00 0.00 0.00 82 974.2
20260509062625 53 186 0.0 0.0 0.00 0.00 0.00 80 974.2
20260509062122 53 179 0.0 0.0 0.00 0.00 0.00 82 974.2
20260509061619 53 181 0.0 0.0 0.00 0.00 0.00 82 974.3
20260509061116 53 183 0.0 0.0 0.00 0.00 0.00 80 974.2